Location: American Canyon
(38.1966°N, 122.1514°W)
Time: 16:27:31
(UTC+00:00)

Meteor 2-10 Rocket - Pass Details

Date: 29 October 2020
Orbit: 733 x 885 km, 81.2° (Epoch: 22 November)

Event Time Altitude Azimuth Distance (km) Brightness Sun altitude
Rises 13:10:47 0° 356° (N) 3,171 6.6 -16.5°
Reaches altitude 10° 13:13:10 10° 1° (N) 2,250 5.9 -16.0°
Maximum altitude 13:18:05 53° 78° (ENE) 917 4.3 -15.1°
Drops below altitude 10° 13:23:05 10° 155° (SSE) 2,292 6.4 -14.1°
Sets 13:25:31 0° 160° (SSE) 3,236 7.1 -13.6°
